Torna al catalogo

SL-12 R/B

AUX MOTOR

AttivoHEO
NORAD 33473·ROCKET BODY·🇷🇺 Russia

Lanciato Dec 25, 2008 da Baikonur Cosmodrome

Loading…

Prossimi Passaggi (prossime 24 ore)

TLE

AggiornatoSource: Space-Track

Epoca: Sep 13, 2026, 00:02 UTC

1 33473U 08067H   26256.00187289  .00000021  00000-0  10468-3 0  9992
2 33473  65.3175 108.7217 5592696 252.9344  41.1594  4.26221405159911

Traccia SL-12 R/B in tempo reale con AllMySat

Download on the App Store